KC5AYO Weather Reports


Display with metric or nautical units.
time (UTC)temp
F
wind
direction
speed
MPH
gust
MPH
rain 1hr
in
rain 24hr
in
rain mn
in
humidity
%
barometer
mb
20240614184547 85 303 0.0 2.0 0.00 0.12 0.12 62 1013.2
20240614184047 85 335 0.0 2.0 0.00 0.12 0.12 64 1013.1
20240614183546 85 335 0.0 2.0 0.00 0.12 0.12 63 1013.1
20240614183049 85 334 0.0 2.0 0.00 0.12 0.12 64 1013.1
20240614182546 85 335 0.0 2.0 0.00 0.12 0.12 65 1013.1
20240614182046 85 335 0.0 2.0 0.00 0.12 0.12 62 1013.1
20240614181549 84 234 0.0 2.0 0.00 0.12 0.12 66 1013.1
20240614181045 84 202 0.0 2.0 0.00 0.12 0.12 67 1013.2
20240614180548 84 203 0.0 2.0 0.00 0.12 0.12 67 1013.2
20240614180044 84 204 0.0 3.0 0.00 0.12 0.12 67 1013.2
20240614175546 84 304 0.0 3.0 0.00 0.12 0.12 65 1013.3
20240614175044 85 323 0.0 2.0 0.00 0.12 0.12 65 1013.3
20240614174544 84 281 0.0 3.0 0.00 0.12 0.12 64 1013.2
20240614174043 83 284 1.0 3.0 0.00 0.12 0.12 66 1013.2
20240614173543 83 323 0.0 2.0 0.00 0.12 0.12 66 1013.2
20240614173043 83 323 0.0 2.0 0.00 0.12 0.12 66 1013.4
20240614172545 83 323 0.0 2.0 0.00 0.12 0.12 66 1013.3
20240614172041 84 323 0.0 2.0 0.00 0.12 0.12 66 1013.3
20240614171539 83 289 0.0 1.0 0.00 0.12 0.12 70 1013.3
20240614171039 82 289 0.0 2.0 0.00 0.12 0.12 69 1013.3
20240614170537 82 289 0.0 2.0 0.00 0.12 0.12 69 1013.4
20240614170042 82 291 0.0 2.0 0.00 0.12 0.12 68 1013.5
20240614165536 81 291 0.0 2.0 0.00 0.12 0.12 70 1013.5
20240614165037 81 290 0.0 2.0 0.00 0.12 0.12 72 1013.6
20240614164535 80 289 0.0 2.0 0.00 0.12 0.12 70 1013.5
20240614164034 81 302 0.0 3.0 0.00 0.12 0.12 70 1013.5
20240614163536 80 307 0.0 4.0 0.00 0.12 0.12 71 1013.6
20240614163034 80 245 1.0 4.0 0.00 0.12 0.12 71 1013.5
20240614162532 80 261 0.0 4.0 0.00 0.12 0.12 70 1013.6
20240614162033 80 275 2.0 4.0 0.00 0.12 0.12 70 1013.5
20240614161539 80 306 0.0 5.0 0.00 0.12 0.12 72 1013.4
20240614161031 80 290 1.0 5.0 0.00 0.12 0.12 69 1013.3
20240614160530 80 257 1.0 3.0 0.00 0.12 0.12 70 1013.3
20240614160031 80 267 0.0 2.0 0.00 0.12 0.12 70 1013.2
20240614155530 80 324 1.0 2.0 0.00 0.12 0.12 70 1013.2
20240614155028 79 307 0.0 3.0 0.00 0.12 0.12 71 1013.2
20240614154533 79 294 1.0 3.0 0.00 0.12 0.12 72 1013.4
20240614154028 79 284 0.0 6.0 0.00 0.12 0.12 71 1013.3
20240614153527 79 269 1.0 6.0 0.00 0.12 0.12 70 1013.2
20240614153028 79 276 0.0 3.0 0.00 0.12 0.12 70 1013.2
20240614152526 79 289 0.0 4.0 0.00 0.12 0.12 71 1013.2
20240614152025 79 294 1.0 2.0 0.00 0.12 0.12 71 1013.2
20240614151525 79 169 0.0 5.0 0.00 0.12 0.12 71 1013.1
20240614151025 79 210 0.0 5.0 0.00 0.12 0.12 71 1013.1
20240614150524 78 259 0.0 2.0 0.00 0.12 0.12 75 1013.1
20240614150022 77 275 0.0 2.0 0.00 0.12 0.12 76 1013.2
20240614145523 77 275 0.0 3.0 0.00 0.12 0.12 78 1013.2
20240614145020 76 278 0.0 3.0 0.00 0.12 0.12 80 1013.2
20240614144521 76 278 0.0 2.0 0.00 0.12 0.12 80 1013.3
20240614144017 75 278 0.0 2.0 0.00 0.12 0.12 81 1013.2
20240614143521 75 149 0.0 2.0 0.00 0.12 0.12 82 1013.3
20240614143019 74 149 0.0 1.0 0.00 0.12 0.12 84 1013.3
20240614142517 73 149 0.0 0.0 0.00 0.12 0.12 85 1013.3
20240614142015 73 149 0.0 0.0 0.00 0.12 0.12 85 1013.4
20240614141514 73 149 0.0 0.0 0.00 0.12 0.12 86 1013.4
20240614141116 72 149 0.0 0.0 0.00 0.12 0.12 86 1013.4
20240614140513 72 149 0.0 0.0 0.00 0.12 0.12 85 1013.5
20240614140013 72 149 0.0 0.0 0.00 0.12 0.12 87 1013.5
20240614135515 72 149 0.0 0.0 0.00 0.12 0.12 87 1013.4
20240614135014 72 149 0.0 0.0 0.00 0.12 0.12 87 1013.5
20240614134512 72 149 0.0 0.0 0.00 0.12 0.12 86 1013.4
20240614134011 71 149 0.0 1.0 0.00 0.12 0.12 88 1013.4
20240614133511 71 149 0.0 1.0 0.00 0.12 0.12 88 1013.3
20240614133014 71 149 0.0 2.0 0.00 0.12 0.12 88 1013.2
20240614132512 71 149 0.0 2.0 0.00 0.12 0.12 88 1013.2
20240614132010 71 149 0.0 1.0 0.00 0.12 0.12 89 1013.3
20240614131509 71 149 0.0 0.0 0.00 0.12 0.12 90 1013.3
20240614131007 71 149 0.0 0.0 0.00 0.12 0.12 89 1013.3
20240614130512 71 149 0.0 0.0 0.00 0.12 0.12 89 1013.3
20240614130008 71 149 0.0 1.0 0.00 0.12 0.12 89 1013.2
20240614125507 71 149 0.0 2.0 0.00 0.12 0.12 91 1013.2
20240614125007 70 149 0.0 2.0 0.00 0.12 0.12 90 1013.1
20240614124507 70 149 0.0 2.0 0.00 0.12 0.12 92 1013.1
20240614124011 69 309 0.0 1.0 0.00 0.12 0.12 94 1013.1
20240614123508 68 309 0.0 1.0 0.00 0.12 0.12 95 1013.1
20240614123004 68 312 0.0 2.0 0.00 0.12 0.12 95 1013.1
20240614122503 68 313 0.0 0.0 0.00 0.12 0.12 94 1013.1
20240614122003 68 313 0.0 2.0 0.00 0.12 0.12 94 1013.2
20240614121510 67 313 0.0 2.0 0.00 0.12 0.12 94 1013.0
20240614121002 67 313 0.0 1.0 0.00 0.12 0.12 94 1012.9
20240614120501 67 313 0.0 0.0 0.00 0.12 0.12 94 1012.8
20240614120002 67 313 0.0 0.0 0.00 0.12 0.12 94 1012.8
20240614115503 67 313 0.0 0.0 0.00 0.12 0.12 94 1012.8
20240614115002 67 313 0.0 0.0 0.00 0.12 0.12 94 1012.8
20240614114502 67 313 0.0 0.0 0.00 0.12 0.12 94 1012.7
20240614114000 67 313 0.0 0.0 0.00 0.12 0.12 94 1012.7
20240614113559 67 313 0.0 0.0 0.00 0.12 0.12 94 1012.8
20240614113103 66 313 0.0 0.0 0.00 0.12 0.12 94 1012.8
20240614112558 66 313 0.0 0.0 0.00 0.12 0.12 93 1012.8
20240614112058 66 313 0.0 0.0 0.00 0.12 0.12 94 1012.8
20240614111559 66 313 0.0 0.0 0.00 0.12 0.12 94 1013.0
20240614111057 66 313 0.0 0.0 0.00 0.12 0.12 94 1013.1
20240614110556 66 313 0.0 0.0 0.00 0.12 0.12 94 1013.1
20240614110058 66 313 0.0 0.0 0.00 0.12 0.12 93 1013.2
20240614105555 66 313 0.0 0.0 0.00 0.12 0.12 93 1013.2
20240614105055 66 313 0.0 0.0 0.00 0.12 0.12 93 1013.2
20240614104618 66 313 0.0 0.0 0.00 0.12 0.12 93 1013.1
20240614104053 66 313 0.0 0.0 0.00 0.12 0.12 93 1013.0
20240614103552 66 313 0.0 0.0 0.00 0.12 0.12 93 1013.0
20240614103103 66 313 0.0 1.0 0.00 0.12 0.12 93 1012.9
20240614102556 66 313 0.0 1.0 0.00 0.12 0.12 93 1012.8
20240614102051 66 313 0.0 0.0 0.00 0.12 0.12 93 1012.9
20240614101552 66 313 0.0 0.0 0.00 0.12 0.12 93 1013.1
20240614101051 66 313 0.0 2.0 0.00 0.12 0.12 93 1012.9
20240614100551 66 313 0.0 2.0 0.00 0.12 0.12 93 1012.6
20240614100050 66 313 0.0 2.0 0.00 0.12 0.12 93 1012.8
20240614095553 66 313 0.0 2.0 0.00 0.12 0.12 93 1013.2
20240614095050 66 313 0.0 1.0 0.00 0.12 0.12 93 1013.4
20240614094549 67 313 0.0 0.0 0.00 0.12 0.12 93 1013.2
20240614094049 67 313 0.0 0.0 0.00 0.12 0.12 93 1013.4
20240614093549 67 313 0.0 0.0 0.00 0.12 0.12 93 1013.5
20240614093049 67 313 0.0 1.0 0.00 0.12 0.12 93 1013.5
20240614092549 67 313 0.0 1.0 0.00 0.12 0.12 93 1013.7
20240614092052 67 313 0.0 0.0 0.00 0.12 0.12 94 1013.7
20240614091548 67 313 0.0 1.0 0.00 0.12 0.12 94 1013.7
20240614091056 67 313 0.0 1.0 0.00 0.12 0.12 93 1013.6
20240614090549 67 313 0.0 0.0 0.00 0.12 0.12 93 1013.6
20240614090055 67 313 0.0 1.0 0.00 0.12 0.12 93 1013.4
20240614085548 67 313 0.0 1.0 0.00 0.12 0.12 93 1013.3
20240614085048 67 313 0.0 2.0 0.00 0.12 0.12 93 1013.4
20240614084550 67 313 0.0 2.0 0.00 0.12 0.12 94 1013.4
20240614084048 67 317 0.0 1.0 0.00 0.12 0.12 94 1013.4
20240614083547 67 317 0.0 2.0 0.00 0.12 0.12 94 1013.3
20240614083050 67 317 0.0 2.0 0.00 0.12 0.12 94 1013.2
20240614082547 67 316 0.0 1.0 0.00 0.12 0.12 94 1013.3
20240614082046 67 316 0.0 1.0 0.00 0.12 0.12 93 1013.3
20240614081545 67 316 0.0 0.0 0.00 0.12 0.12 93 1013.3
20240614081048 67 316 0.0 0.0 0.00 0.12 0.12 94 1013.5
20240614080546 67 316 0.0 0.0 0.00 0.12 0.12 94 1013.3
20240614080104 67 316 0.0 0.0 0.00 0.12 0.12 94 1013.3
20240614075549 67 316 0.0 0.0 0.00 0.12 0.12 94 1013.4
20240614075045 67 316 0.0 0.0 0.00 0.12 0.12 94 1013.6
20240614074545 67 316 0.0 0.0 0.00 0.12 0.12 94 1013.7
20240614074046 67 316 0.0 0.0 0.00 0.12 0.12 93 1013.6
20240614073544 67 316 0.0 2.0 0.00 0.12 0.12 93 1013.8
20240614073045 67 316 0.0 2.0 0.00 0.12 0.12 93 1013.9
20240614072545 67 316 0.0 2.0 0.00 0.12 0.12 93 1013.9
20240614072043 67 316 0.0 2.0 0.00 0.12 0.12 93 1014.0
20240614071550 67 316 0.0 2.0 0.00 0.12 0.12 93 1014.1
20240614071043 67 316 0.0 0.0 0.00 0.12 0.12 93 1014.2
20240614070543 67 316 0.0 1.0 0.00 0.12 0.12 93 1014.3
20240614070044 67 316 0.0 1.0 0.00 0.12 0.12 93 1014.4
20240614065542 67 316 0.0 2.0 0.01 0.12 0.12 92 1014.2
20240614065042 67 316 0.0 2.0 0.01 0.12 0.12 93 1014.1
20240614064544 67 316 0.0 2.0 0.08 0.12 0.12 93 1013.8
20240614064041 67 316 0.0 0.0 0.12 0.12 0.12 92 1013.5
20240614063540 67 316 0.0 0.0 0.12 0.12 0.12 91 1013.4
20240614063046 68 316 0.0 1.0 0.12 0.12 0.12 91 1013.5
20240614062538 68 316 0.0 1.0 0.12 0.12 0.12 91 1013.6
20240614062038 68 316 0.0 0.0 0.12 0.12 0.12 91 1014.0
20240614061545 68 316 0.0 1.0 0.12 0.12 0.12 91 1014.1
20240614061036 68 316 0.0 1.0 0.12 0.12 0.12 89 1013.7
20240614060535 69 316 0.0 2.0 0.12 0.12 0.12 89 1013.9
20240614060039 69 316 0.0 2.0 0.12 0.12 0.12 88 1013.9
20240614055532 69 316 0.0 2.0 0.11 0.11 0.11 86 1014.1
20240614055031 70 62 1.0 4.0 0.11 0.11 0.11 84 1014.2
20240614054539 71 331 0.0 4.0 0.03 0.03 0.03 81 1014.8
20240614054028 72 331 1.0 9.0 0.00 0.00 0.00 76 1015.3
20240614053526 73 298 2.0 9.0 0.00 0.00 0.00 74 1015.6
20240614053025 74 329 3.0 9.0 0.00 0.00 0.00 71 1016.0
20240614052523 74 346 2.0 8.0 0.00 0.00 0.00 71 1016.0
20240614052022 75 146 0.0 1.0 0.00 0.00 0.00 72 1014.2
20240614051523 75 146 0.0 0.0 0.00 0.00 0.00 70 1013.4
20240614051021 75 146 0.0 1.0 0.00 0.00 0.00 66 1013.3
20240614050521 75 146 0.0 1.0 0.00 0.00 0.00 67 1013.2
20240614050023 75 146 0.0 1.0 0.00 0.00 0.00 66 1012.9
20240614045521 75 146 0.0 1.0 0.00 0.00 0.00 66 1013.0
20240614045020 75 146 0.0 1.0 0.00 0.00 0.00 68 1013.0
20240614044521 74 146 0.0 0.0 0.00 0.00 0.00 68 1013.3
20240614044020 74 146 0.0 0.0 0.00 0.00 0.00 69 1013.6
20240614043517 75 146 0.0 0.0 0.00 0.00 0.00 70 1013.7
20240614043017 75 146 0.0 0.0 0.00 0.00 0.00 70 1013.9
20240614042515 75 146 0.0 2.0 0.00 0.00 0.00 67 1014.0
20240614042018 75 146 0.0 2.0 0.00 0.00 0.00 67 1014.0
20240614041516 75 144 0.0 0.0 0.00 0.00 0.00 69 1013.9
20240614041012 75 144 0.0 0.0 0.00 0.00 0.00 65 1013.9
20240614040512 75 144 0.0 1.0 0.00 0.00 0.00 67 1013.9
20240614040011 75 144 0.0 1.0 0.00 0.00 0.00 67 1013.8
20240614035514 74 145 0.0 0.0 0.00 0.00 0.00 69 1013.8
20240614035010 74 145 0.0 0.0 0.00 0.00 0.00 71 1013.8
20240614034515 74 145 0.0 0.0 0.00 0.00 0.00 71 1013.7
20240614034010 74 145 0.0 0.0 0.00 0.00 0.00 73 1013.9
20240614033511 74 145 0.0 0.0 0.00 0.00 0.00 72 1013.9
20240614033010 74 145 0.0 0.0 0.00 0.00 0.00 72 1013.7
20240614032511 74 144 0.0 0.0 0.00 0.00 0.00 71 1013.9
20240614032010 74 145 0.0 0.0 0.00 0.00 0.00 71 1013.6
20240614031520 75 145 0.0 0.0 0.00 0.00 0.00 70 1013.6
20240614031009 75 144 0.0 0.0 0.00 0.00 0.00 71 1013.7
20240614030513 75 144 0.0 0.0 0.00 0.00 0.00 69 1013.4
20240614030009 75 145 0.0 0.0 0.00 0.00 0.00 68 1013.3
20240614025509 75 145 0.0 1.0 0.00 0.00 0.00 69 1013.3
20240614025008 75 145 0.0 1.0 0.00 0.00 0.00 70 1013.1
20240614024511 75 145 0.0 0.0 0.00 0.00 0.00 70 1012.8
20240614024010 75 145 0.0 0.0 0.00 0.00 0.00 69 1012.5
20240614023512 74 144 0.0 0.0 0.00 0.00 0.00 72 1012.5
20240614023010 75 144 0.0 0.0 0.00 0.00 0.00 73 1012.7
20240614022508 75 145 0.0 0.0 0.00 0.00 0.00 72 1012.8
20240614022007 75 144 0.0 0.0 0.00 0.00 0.00 72 1012.8
20240614021511 75 145 0.0 0.0 0.00 0.00 0.00 71 1012.8
20240614021007 75 145 0.0 0.0 0.00 0.00 0.00 71 1012.8
20240614020507 75 145 0.0 0.0 0.00 0.00 0.00 69 1012.6
20240614020007 75 145 0.0 0.0 0.00 0.00 0.00 71 1012.7
20240614015507 75 145 0.0 0.0 0.00 0.00 0.00 70 1012.8
20240614015006 75 144 0.0 0.0 0.00 0.00 0.00 70 1012.7
20240614014512 76 145 0.0 0.0 0.00 0.00 0.00 67 1012.7
20240614014006 76 145 0.0 0.0 0.00 0.00 0.00 66 1012.6
20240614013506 76 144 0.0 0.0 0.00 0.00 0.00 65 1012.8
20240614013019 77 145 0.0 0.0 0.00 0.00 0.00 62 1012.9
20240614012508 77 144 0.0 0.0 0.00 0.00 0.00 61 1012.8
20240614012004 77 145 0.0 0.0 0.00 0.00 0.00 61 1012.8
20240614011510 78 145 0.0 0.0 0.00 0.00 0.00 61 1013.1
20240614011004 78 145 0.0 0.0 0.00 0.00 0.00 60 1012.9
20240614010505 79 145 0.0 0.0 0.00 0.00 0.00 60 1012.9
20240614010004 79 145 0.0 0.0 0.00 0.00 0.00 59 1013.1
20240614005505 79 144 0.0 0.0 0.00 0.00 0.00 58 1013.0
20240614005004 80 144 0.0 0.0 0.00 0.00 0.00 56 1013.0
20240614004506 80 145 0.0 0.0 0.00 0.00 0.00 54 1012.9
20240614004004 81 145 0.0 0.0 0.00 0.00 0.00 55 1013.0
20240614003503 81 145 0.0 0.0 0.00 0.00 0.00 53 1013.0
20240614003006 81 145 0.0 0.0 0.00 0.00 0.00 52 1012.9
20240614002503 82 145 0.0 0.0 0.00 0.00 0.00 53 1012.7
20240614002005 82 144 0.0 0.0 0.00 0.00 0.00 53 1012.6
20240614001503 83 145 0.0 0.0 0.00 0.00 0.00 52 1012.7
20240614001003 83 144 0.0 0.0 0.00 0.00 0.00 50 1012.6
20240614000504 83 145 0.0 1.0 0.00 0.00 0.00 52 1012.6
20240614000139 83 145 0.0 2.0 0.00 0.00 0.00 52 1012.6
20240613235503 84 144 0.0 2.0 0.00 0.00 0.00 49 1012.5
20240613235003 84 144 0.0 1.0 0.00 0.00 0.00 47 1012.6
20240613234503 85 144 0.0 2.0 0.00 0.00 0.00 51 1012.7
20240613234001 85 144 0.0 2.0 0.00 0.00 0.00 49 1012.7
20240613233502 85 144 0.0 2.0 0.00 0.00 0.00 47 1012.7
20240613233002 85 171 0.0 4.0 0.00 0.00 0.00 49 1012.8
20240613232503 85 170 0.0 4.0 0.00 0.00 0.00 44 1012.7
20240613232003 85 79 0.0 4.0 0.00 0.00 0.00 47 1012.7
20240613231601 86 104 0.0 4.0 0.00 0.00 0.00 44 1012.6
20240613231501 86 104 0.0 4.0 0.00 0.00 0.00 47 1012.7
20240613231100 86 205 0.0 1.0 0.00 0.00 0.00 46 1012.7
20240613231000 86 205 0.0 2.0 0.00 0.00 0.00 47 1012.7
20240613230601 86 205 0.0 3.0 0.00 0.00 0.00 46 1012.7
20240613230118 86 182 0.0 3.0 0.00 0.00 0.00 45 1012.7
20240613225559 86 193 0.0 3.0 0.00 0.00 0.00 45 1012.5
20240613225100 86 219 0.0 2.0 0.00 0.00 0.00 45 1012.5
20240613224619 86 196 0.0 2.0 0.00 0.00 0.00 44 1012.4
20240613224059 86 220 0.0 4.0 0.00 0.00 0.00 43 1012.4
20240613223558 86 143 1.0 4.0 0.00 0.00 0.00 41 1012.4
20240613223059 86 153 1.0 5.0 0.00 0.00 0.00 41 1012.4
20240613222606 87 109 0.0 3.0 0.00 0.00 0.00 42 1012.4
20240613222057 86 167 1.0 7.0 0.00 0.00 0.00 41 1012.4
20240613221600 86 138 2.0 7.0 0.00 0.00 0.00 42 1012.5
20240613221058 87 190 1.0 9.0 0.00 0.00 0.00 42 1012.6
20240613220556 87 136 1.0 6.0 0.00 0.00 0.00 42 1012.6
20240613220115 87 302 0.0 4.0 0.00 0.00 0.00 42 1012.6
20240613215555 87 336 0.0 4.0 0.00 0.00 0.00 44 1012.7
20240613215058 87 42 0.0 4.0 0.00 0.00 0.00 42 1013.0
20240613214554 87 265 2.0 4.0 0.00 0.00 0.00 44 1012.9
20240613214058 87 116 0.0 5.0 0.00 0.00 0.00 42 1013.0
20240613213553 87 247 2.0 5.0 0.00 0.00 0.00 43 1013.0
20240613213058 87 167 1.0 4.0 0.00 0.00 0.00 43 1013.1
20240613212552 87 223 1.0 7.0 0.00 0.00 0.00 41 1013.2
20240613212052 87 232 1.0 7.0 0.00 0.00 0.00 42 1013.2
20240613211601 87 199 1.0 5.0 0.00 0.00 0.00 44 1013.2
20240613211056 87 278 1.0 3.0 0.00 0.00 0.00 43 1013.2
20240613210551 87 181 1.0 3.0 0.00 0.00 0.00 41 1013.2
20240613210052 87 173 0.0 6.0 0.00 0.00 0.00 41 1013.2
20240613205551 87 216 1.0 6.0 0.00 0.00 0.00 45 1013.2
20240613205051 87 266 0.0 5.0 0.00 0.00 0.00 44 1013.1
20240613204550 88 271 1.0 4.0 0.00 0.00 0.00 43 1013.3
20240613204048 88 176 0.0 3.0 0.00 0.00 0.00 41 1013.6
20240613203548 88 223 0.0 3.0 0.00 0.00 0.00 42 1013.7
20240613203059 87 230 0.0 3.0 0.00 0.00 0.00 44 1013.8
20240613202548 87 193 1.0 8.0 0.00 0.00 0.00 41 1013.9
20240613202048 87 5 1.0 4.0 0.00 0.00 0.00 40 1013.8
20240613201647 87 309 1.0 4.0 0.00 0.00 0.00 41 1013.8
20240613201047 88 85 1.0 5.0 0.00 0.00 0.00 40 1013.8
20240613200549 87 53 0.0 3.0 0.00 0.00 0.00 40 1013.8
20240613200048 87 138 0.0 3.0 0.00 0.00 0.00 42 1013.9
20240613195548 87 243 0.0 4.0 0.00 0.00 0.00 43 1013.8
20240613195049 88 300 1.0 4.0 0.00 0.00 0.00 42 1013.7
20240613194545 87 150 1.0 4.0 0.00 0.00 0.00 38 1013.7
20240613194048 87 241 1.0 4.0 0.00 0.00 0.00 42 1013.9
20240613193544 87 279 0.0 3.0 0.00 0.00 0.00 43 1013.7
20240613193049 87 297 0.0 3.0 0.00 0.00 0.00 43 1013.7
20240613192643 87 258 0.0 6.0 0.00 0.00 0.00 44 1013.8
20240613192042 87 244 1.0 6.0 0.00 0.00 0.00 41 1013.9
20240613191542 87 55 0.0 7.0 0.00 0.00 0.00 40 1013.9
20240613191047 87 217 1.0 5.0 0.00 0.00 0.00 39 1013.9
20240613190544 86 221 1.0 4.0 0.00 0.00 0.00 42 1014.0
20240613190042 86 163 0.0 4.0 0.00 0.00 0.00 40 1013.9
20240613185546 87 263 1.0 4.0 0.00 0.00 0.00 42 1014.0
20240613185047 86 68 1.0 4.0 0.00 0.00 0.00 42 1014.1